{"data":{"norad_id":37739,"intl_designator":"2011-033A","name":"GLOBALSTAR M083","alt_names":[],"object_type":"PAYLOAD","status":"ACTIVE","operator":null,"country":"GLOB","launch_date":"2011-07-13","launch_site_code":"TYMSC","launch_vehicle":null,"mission":null,"orbit_class":"UNKNOWN","rcs_meters":4.6744,"size_class":null,"mass_kg":null,"dimensions":null,"purposes":["comms"],"wikipedia_slug":null,"has_3d_model":false,"image_url":null,"decayed_at":null,"tle_current":{"epoch":"2026-05-25T04:33:21.210048Z","epoch_age_seconds":55888,"freshness":"FRESH","line1":"1 37739U 11033A   26145.18982882 -.00000097  00000+0  36860-4 0  9994","line2":"2 37739  51.9857  82.5544 0000556  22.0570 116.6147 12.62262568690041","mean_motion":12.62262568,"eccentricity":5.56e-5,"inclination_deg":51.9857,"raan_deg":82.5544,"arg_perigee_deg":22.057,"mean_anomaly_deg":116.6147,"bstar":3.686e-5,"rev_number":69004,"period_min":114.08086055199,"perigee_km":1413.186284452,"apogee_km":1414.0527277754,"semimajor_km":7791.7565061137,"source":"CELESTRAK","updated_at":"2026-05-25T13:38:23.041845Z"}}}